GFSMW_925_temp_081.txt.gz
Temp
13 13 12 11 11 11 11 11 11 12 12 13 13 14 15 16 16 16 16 16 15 16 17 16 16 16 16 16 16 15 15 15 15 14 13 13 14 13 14 13 13 13 12
12 13 12 12 11 11 11 11 11 11 12 12 13 13 14 15 15 15 16 16 17 17 16 16 16 16 16 16 16 15 15 15 15 14 12 10 12 13 13 13 13 13 13
13 14 12 12 11 11 11 11 10 11 11 12 12 14 15 15 15 16 16 16 17 16 16 16 16 16 16 16 16 15 15 15 14 14 14 8 9 10 12 12 12 12 12
13 13 12 11 11 11 11 11 11 11 11 12 13 14 14 15 16 17 17 16 16 16 16 16 16 16 16 16 16 15 15 15 14 13 13 12 11 10 10 10 11 11 11
14 13 12 11 11 11 10 11 11 12 12 12 13 13 13 14 15 16 17 17 17 17 17 17 16 15 16 16 15 15 14 14 14 14 12 10 10 9 9 8 9 10 11
14 14 13 12 11 11 11 11 11 12 12 12 12 13 13 14 14 15 15 17 17 18 17 17 16 16 16 16 15 15 14 14 14 14 14 12 10 8 7 6 7 8 10
15 14 13 12 12 11 11 11 11 11 11 12 12 13 13 13 13 14 15 16 16 16 16 16 16 16 16 16 15 14 14 13 13 13 13 12 11 10 9 8 7 6 7
16 15 14 14 13 12 12 12 12 12 12 12 12 13 13 13 13 13 14 14 14 15 16 17 16 16 15 15 15 14 14 14 13 13 11 11 10 10 9 9 7 5 5
16 16 16 15 14 14 13 12 13 12 13 12 13 13 13 13 13 13 14 14 15 15 15 16 16 15 15 14 14 13 13 13 13 12 11 10 9 9 9 8 8 7 5
17 17 16 16 15 15 14 13 13 13 13 13 13 13 13 13 13 14 14 14 14 14 14 15 14 14 13 13 13 12 12 12 12 11 10 9 9 8 7 7 7 6 5
18 18 17 17 16 15 15 14 14 14 14 14 14 14 14 14 14 14 14 15 15 14 14 14 14 13 13 13 13 12 12 11 11 10 9 8 7 7 6 6 6 5 5
19 18 18 18 17 16 15 14 14 14 14 15 16 15 15 15 15 14 14 15 14 14 14 14 14 12 12 12 12 11 11 11 9 9 8 7 6 6 6 6 5 5 5
18 18 18 18 18 17 16 15 15 15 15 15 15 15 15 15 15 15 15 14 13 14 14 14 14 13 11 11 11 11 10 9 8 8 7 6 6 6 6 5 5 5 5
18 17 18 18 19 18 18 17 16 15 15 15 16 15 15 16 16 15 15 13 13 13 12 12 12 11 10 11 10 10 9 8 7 7 6 5 5 5 5 4 5 5 4
18 18 17 16 15 17 18 18 17 17 16 15 15 15 15 15 14 14 13 13 13 12 11 12 11 10 10 10 9 8 7 6 5 5 5 4 4 4 5 5 4 4 3
20 18 18 17 15 15 15 16 15 15 14 13 12 13 12 12 12 12 12 11 11 11 10 9 9 9 9 9 7 7 6 5 5 4 4 3 3 3 3 3 3 2 1
19 18 18 17 15 12 12 11 11 11 11 11 10 10 10 10 10 11 10 10 10 9 9 8 8 7 7 6 6 6 5 5 4 3 3 2 2 1 1 1 1 0 -1
18 17 14 11 10 10 10 9 10 10 10 10 9 9 10 9 9 9 9 8 8 7 7 6 6 6 5 5 5 4 4 3 3 2 2 1 0 -1 -1 -1 -1 -2 -2
17 13 12 10 10 10 9 9 9 9 9 9 9 9 8 8 8 7 7 6 6 6 5 6 5 5 4 4 4 4 3 3 1 1 0 -0 -1 -2 -2 -2 -3 -4 -4
12 10 9 9 9 9 9 9 9 8 8 8 8 7 7 7 6 6 6 5 5 5 5 4 4 4 3 3 3 3 2 1 0 -1 -1 -2 -3 -4 -4 -5 -5 -6 -6
10 9 9 9 8 8 8 8 8 8 7 7 7 7 6 6 6 5 5 4 5 4 3 3 2 2 2 1 1 1 1 0 -1 -2 -3 -4 -4 -4 -5 -6 -6 -7 -7
10 9 9 8 8 8 8 8 7 6 6 6 6 5 5 5 4 5 4 4 4 3 1 1 -1 -1 -1 -1 -1 -1 -1 -2 -2 -3 -4 -4 -5 -5 -6 -6 -7 -7 -8
10 9 8 8 8 8 8 7 6 6 6 5 4 4 4 4 4 4 4 3 2 0 -2 -3 -4 -4 -4 -3 -3 -3 -3 -3 -4 -4 -5 -5 -6 -6 -7 -7 -8 -8 -9
9 8 8 7 7 7 7 6 6 5 5 4 3 3 3 2 2 2 1 1 1 -0 -1 -2 -3 -4 -5 -5 -5 -5 -5 -5 -6 -6 -6 -7 -7 -7 -8 -8 -9 -10 -10
7 6 5 5 5 5 5 5 5 6 4 3 2 2 2 1 0 -1 -1 -1 -2 -0 -1 -2 -3 -4 -5 -5 -6 -6 -6 -7 -7 -8 -8 -8 -8 -8 -9 -10 -10 -11 -12
3 3 2 2 1 2 2 2 3 3 1 -1 -2 -3 -3 -3 -4 -4 -4 -4 -3 -3 -3 -3 -4 -4 -4 -5 -6 -7 -7 -8 -8 -8 -8 -9 -9 -10 -11 -11 -12 -12 -13

GFSMW_925_temp_084.txt.gz
Temp
14 13 12 12 11 11 11 12 11 11 11 12 13 13 13 15 16 16 17 17 16 16 16 16 16 15 16 15 15 15 15 15 15 14 13 13 13 14 14 13 13 13 13
13 13 12 11 11 11 11 11 11 11 11 12 12 13 14 15 15 15 15 16 16 16 16 16 15 16 15 15 15 15 14 14 14 14 12 10 12 13 13 13 13 13 13
12 13 13 11 11 11 11 11 11 11 12 12 13 13 14 14 14 14 16 15 15 16 16 15 16 16 16 15 15 15 15 15 14 14 14 8 9 10 12 13 13 13 12
12 12 13 12 11 11 11 11 11 11 12 13 13 13 14 14 14 14 15 14 15 15 16 16 16 16 15 16 16 16 15 15 14 12 13 13 12 10 10 11 11 12 11
12 12 12 12 12 12 11 11 11 11 12 13 12 13 14 15 15 15 15 15 15 16 16 16 16 16 16 15 15 15 15 15 14 14 12 11 10 11 9 9 9 9 10
13 12 12 12 12 11 11 11 11 11 11 11 12 13 14 14 15 15 15 16 16 16 17 17 16 15 16 15 15 15 15 14 14 14 13 13 11 9 9 7 8 9 9
14 12 12 12 11 10 10 10 10 10 11 11 12 13 13 14 15 15 15 15 16 16 16 16 16 15 16 16 15 15 14 14 14 13 13 13 13 13 11 10 8 7 9
14 14 13 12 11 10 10 10 10 10 11 11 11 12 12 13 13 13 14 14 15 16 16 16 16 16 16 16 15 14 14 14 13 12 12 12 12 12 11 10 8 5 6
14 14 14 13 12 11 10 10 10 11 11 11 11 11 12 12 12 13 13 14 14 15 15 16 16 16 15 14 14 13 13 12 12 12 11 11 11 11 10 10 9 8 6
14 14 14 14 13 13 12 12 12 12 12 12 12 12 12 12 12 13 13 13 14 15 15 14 14 14 14 14 14 13 13 13 12 10 11 10 10 10 10 9 8 8 7
15 15 15 15 14 13 13 12 12 12 12 12 12 12 13 13 13 13 13 14 14 14 14 14 14 14 14 13 12 12 12 12 13 12 10 9 10 9 8 7 7 6 6
15 15 15 15 14 14 13 13 12 12 13 13 14 14 14 13 13 13 14 14 14 13 13 13 13 14 14 12 12 12 12 12 12 11 10 9 8 8 7 6 6 6 5
16 15 15 15 15 14 14 14 13 13 13 13 13 13 13 13 13 13 13 13 14 14 13 12 12 13 13 12 12 11 11 11 9 9 9 8 8 6 6 6 5 5 4
16 15 15 15 16 15 15 14 14 13 13 13 13 14 14 14 14 14 14 14 14 14 13 12 12 12 12 12 11 10 11 10 9 8 8 7 7 6 6 5 5 4 4
17 16 16 15 15 16 16 15 15 14 14 13 13 13 14 14 14 14 14 14 13 12 12 12 12 12 11 11 10 10 9 8 7 6 6 5 5 5 5 4 4 4 3
18 18 17 16 14 15 15 16 15 15 14 14 13 13 14 14 13 13 12 12 12 12 12 12 11 11 11 10 9 9 7 6 6 5 4 4 4 4 3 3 3 2 2
18 18 18 17 16 14 15 13 12 12 13 13 12 11 11 11 11 11 12 12 12 11 11 10 10 9 8 7 6 7 6 6 5 4 3 2 1 2 2 1 1 -0 -1
18 16 15 11 11 12 12 10 10 10 10 10 10 10 10 11 11 10 10 10 9 9 8 7 7 6 6 5 5 5 5 4 2 2 1 1 0 -0 -0 -1 -1 -2 -2
18 15 13 11 10 10 9 10 10 9 9 9 9 9 10 9 9 8 7 7 6 5 5 5 5 5 4 4 4 4 4 2 0 -0 -1 -1 -1 -2 -2 -2 -3 -3 -4
12 10 10 10 10 9 10 9 9 9 8 8 8 8 7 7 7 6 5 5 5 5 4 4 4 3 3 3 3 3 2 0 -1 -2 -2 -2 -2 -3 -3 -3 -4 -5 -6
9 9 9 9 9 9 9 8 8 7 7 7 7 6 6 6 6 5 5 4 4 3 2 2 0 0 0 -0 0 0 0 -1 -2 -2 -3 -3 -4 -4 -4 -5 -6 -6 -7
9 8 8 8 8 8 9 7 6 6 6 6 5 5 5 4 4 4 3 3 2 1 -1 -1 -2 -2 -2 -1 -1 -2 -2 -3 -3 -3 -4 -4 -4 -4 -6 -6 -7 -7 -8
9 8 8 7 7 7 8 6 5 6 6 5 4 4 4 3 3 3 2 2 2 0 -2 -2 -4 -4 -4 -4 -3 -3 -4 -5 -4 -4 -4 -5 -6 -6 -7 -7 -8 -8 -8
8 8 7 6 5 5 5 5 6 7 6 3 2 1 1 0 0 0 -0 -1 -1 -2 -3 -3 -5 -5 -5 -5 -5 -6 -5 -5 -5 -6 -6 -7 -7 -7 -8 -8 -9 -9 -10
5 6 6 5 4 4 3 4 4 4 1 -0 -1 -2 -2 -3 -4 -4 -3 -3 -3 -2 -3 -3 -4 -4 -5 -5 -6 -7 -7 -7 -7 -7 -8 -8 -8 -9 -9 -10 -10 -11 -11
3 2 1 0 -0 -0 -0 1 1 1 -1 -3 -3 -4 -4 -4 -3 -4 -4 -4 -4 -4 -4 -4 -4 -5 -6 -6 -7 -7 -7 -8 -8 -9 -9 -9 -9 -10 -11 -11 -11 -12 -13

GFSMW_925_temp_087.txt.gz
Temp
16 14 13 12 12 12 12 12 12 12 12 12 12 12 13 13 13 13 15 15 16 16 16 16 15 15 15 16 16 14 14 14 14 12 12 12 13 13 13 13 13 12 12
15 15 13 12 12 11 11 11 12 12 12 12 12 12 13 13 14 15 15 15 16 16 16 16 16 15 15 15 15 15 13 13 14 14 13 15 14 13 13 13 12 12 12
15 15 13 13 12 11 11 11 11 11 12 12 12 12 13 14 14 14 14 15 16 17 17 16 16 16 16 15 15 15 14 14 13 14 15 14 15 14 12 11 12 12 12
16 16 14 13 12 12 11 11 11 11 11 12 13 12 13 13 14 15 15 15 16 16 16 16 16 16 16 14 15 16 15 14 13 12 14 14 13 16 16 12 12 11 11
16 16 15 13 12 12 11 11 11 11 11 12 12 12 13 14 13 13 15 14 14 15 15 16 16 16 15 15 15 15 14 15 13 13 12 11 11 11 14 14 12 10 10
16 16 15 14 13 12 11 11 11 11 11 12 12 13 14 14 14 13 14 14 15 16 15 14 15 15 15 15 15 15 15 15 14 12 12 13 13 12 11 11 12 10 11
17 16 16 14 14 12 12 11 11 12 11 11 12 12 13 14 14 14 14 14 16 15 14 15 14 15 15 15 16 15 15 14 13 13 13 12 12 13 11 11 10 11 10
18 17 16 15 14 13 12 11 11 11 11 11 12 12 13 13 13 13 14 13 14 14 15 15 15 15 16 16 15 15 14 13 13 12 13 11 11 10 11 11 11 7 8
18 18 17 15 14 13 12 11 11 10 11 11 11 11 12 12 13 13 13 13 14 14 14 15 15 16 15 15 14 13 13 12 12 13 12 12 11 10 9 10 11 10 8
17 18 17 16 15 14 12 10 10 11 12 12 11 11 12 12 12 12 13 13 14 14 14 14 15 14 14 14 14 12 12 12 11 11 12 11 11 12 9 8 9 9 9
18 18 18 17 16 14 13 12 11 12 12 12 12 12 12 12 12 12 12 13 13 13 13 14 14 14 14 14 13 12 13 12 12 12 11 11 12 12 9 8 8 7 7
19 18 18 17 16 15 14 13 12 12 12 12 12 12 12 12 12 12 12 12 12 13 14 14 14 14 14 14 13 12 11 11 11 11 10 10 10 10 8 8 8 7 7
19 18 17 17 17 16 15 14 14 13 13 13 12 12 12 12 12 12 12 12 13 12 13 13 13 14 13 12 12 13 11 12 11 10 10 10 9 9 8 7 6 6 6
21 19 18 18 17 16 16 15 14 14 13 13 13 13 12 12 13 12 13 13 13 13 13 12 12 12 12 12 12 12 11 11 11 10 10 9 8 7 7 6 6 5 5
21 20 19 19 18 16 15 15 15 14 13 13 13 13 13 13 13 12 13 13 13 12 12 12 12 12 12 12 12 12 11 10 9 8 7 6 7 6 7 5 5 4 4
22 21 20 19 18 17 16 15 14 14 13 13 13 13 13 12 12 12 12 12 12 12 12 12 12 12 12 12 12 11 10 8 7 6 5 5 5 4 4 3 3 3 2
22 21 20 19 18 17 15 14 13 13 13 13 13 11 12 12 12 12 11 12 12 12 12 11 11 10 10 10 9 8 7 6 5 4 3 2 1 2 1 1 1 1 0
22 21 20 17 15 13 13 11 10 11 10 10 10 11 11 11 11 11 11 10 9 9 8 7 7 7 6 6 5 5 5 3 2 2 1 1 -1 -0 -0 -0 -1 -1 -2
21 20 18 13 11 11 11 10 10 10 10 10 10 10 10 10 9 8 8 7 7 6 5 4 4 4 3 4 4 4 2 1 -1 -1 -1 -1 -1 -1 -2 -1 -2 -4 -4
17 15 12 11 10 10 10 10 9 9 8 8 8 8 8 8 7 6 6 5 5 4 4 3 2 2 1 2 3 3 1 -0 -2 -2 -3 -4 -3 -2 -2 -3 -4 -4 -4
12 11 11 11 10 10 10 9 8 7 6 7 7 7 7 6 6 5 5 4 3 2 1 0 -1 -1 -1 -1 -0 0 -0 -2 -4 -5 -6 -6 -4 -4 -4 -5 -5 -6 -7
9 10 9 9 9 9 8 7 6 5 6 6 5 4 4 4 4 4 2 2 1 -0 -2 -3 -4 -4 -4 -3 -3 -3 -3 -4 -4 -6 -6 -7 -6 -5 -6 -6 -7 -6 -7
8 8 8 8 7 7 7 6 5 4 4 4 2 2 2 1 1 1 -0 -1 -1 -2 -3 -4 -5 -5 -4 -4 -4 -4 -4 -5 -6 -7 -8 -7 -6 -6 -7 -7 -8 -8 -8
8 7 6 6 5 5 5 5 4 3 2 1 -1 -1 -1 -1 -1 -1 -2 -2 -2 -3 -3 -4 -4 -5 -5 -5 -6 -6 -6 -6 -7 -7 -7 -7 -8 -8 -8 -8 -8 -9 -9
5 5 4 3 3 2 2 2 1 1 -0 -1 -2 -3 -3 -3 -3 -4 -3 -3 -3 -3 -4 -4 -4 -4 -5 -7 -7 -7 -7 -7 -8 -8 -8 -7 -8 -8 -8 -9 -9 -10 -10
2 2 1 1 0 0 0 -0 -0 -1 -1 -2 -3 -3 -3 -4 -4 -5 -5 -5 -5 -5 -5 -5 -5 -6 -7 -7 -7 -7 -8 -8 -8 -8 -8 -8 -8 -9 -9 -9 -10 -10 -11

GFSMW_925_temp_093.txt.gz
Temp
28 23 21 18 16 14 13 13 12 13 13 13 12 12 13 13 12 12 14 14 14 14 15 14 15 14 15 15 16 16 16 17 17 17 16 16 16 16 16 15 16 16 15
27 23 21 18 16 14 13 14 14 13 13 13 13 12 12 12 12 12 12 12 13 14 14 14 14 14 15 15 15 15 15 16 15 16 18 18 17 16 15 16 16 16 16
27 24 22 19 16 15 13 14 14 14 14 12 12 12 12 12 12 12 12 13 13 14 15 15 15 15 15 14 15 15 15 16 15 16 18 18 18 18 17 16 16 16 16
28 26 23 21 16 16 15 13 14 14 14 14 13 12 13 13 12 12 12 13 14 14 14 14 15 15 15 15 15 15 15 17 18 16 16 17 17 18 18 18 17 16 16
28 26 24 22 19 16 17 15 13 13 13 14 14 14 14 13 12 12 12 13 14 15 14 16 16 15 15 15 16 15 15 16 16 18 17 16 16 16 17 17 18 17 16
28 27 25 22 20 16 16 16 14 13 13 14 14 14 13 13 13 12 12 13 13 14 15 16 16 16 15 15 16 16 15 15 16 16 17 17 17 18 17 17 17 18 17
28 27 25 24 21 18 16 16 15 14 13 13 14 14 14 14 14 14 13 13 13 13 13 14 15 15 15 16 16 15 15 15 15 16 16 16 16 16 17 16 17 17 17
28 27 26 25 22 18 17 16 16 15 13 13 13 14 13 14 14 14 14 14 13 13 14 15 15 16 16 15 15 15 15 15 15 15 15 16 16 16 16 16 16 15 14
29 28 27 25 23 20 18 18 17 16 15 14 13 13 13 14 15 16 16 15 15 15 16 15 15 16 16 16 16 15 15 15 15 15 15 15 15 14 14 14 14 13 13
29 28 28 26 24 22 19 17 18 18 16 16 15 14 14 14 15 16 16 16 16 16 17 16 16 16 16 16 15 15 15 15 15 15 14 14 14 13 13 13 12 12 11
29 29 28 27 24 23 21 18 18 19 18 16 16 16 15 15 16 17 17 17 16 16 17 16 15 15 16 16 16 16 16 16 16 15 14 14 12 12 12 12 11 11 10
29 29 29 28 25 24 22 20 19 19 19 18 17 16 16 16 16 17 17 17 17 17 17 16 17 16 16 16 16 16 16 16 16 15 14 12 12 13 12 11 10 10 10
29 29 29 28 27 25 23 22 19 19 19 19 18 18 17 17 17 16 16 16 16 16 16 16 16 16 17 16 16 16 16 16 15 14 12 12 12 12 11 10 10 10 9
29 29 28 28 27 25 24 23 21 19 19 19 19 18 18 17 17 17 17 16 16 16 16 16 16 16 16 16 16 16 16 15 13 12 12 11 12 12 11 10 10 9 9
29 29 29 28 28 26 25 24 22 20 19 19 19 19 18 18 17 17 17 17 16 16 16 16 16 16 16 16 16 16 15 14 13 12 11 10 9 9 9 9 8 7 6
29 29 29 29 28 27 26 24 23 22 20 20 20 19 18 18 17 17 17 16 16 16 16 16 16 16 14 14 14 14 13 12 11 9 6 5 4 4 5 5 5 4 3
29 29 29 29 29 27 26 25 24 23 21 20 20 19 19 18 17 17 17 17 16 16 13 12 12 11 10 10 11 10 9 7 5 4 2 1 0 0 0 -0 0 0 -0
27 28 28 29 28 28 27 25 24 23 21 20 20 19 19 18 18 18 17 12 11 11 9 8 7 6 5 5 6 6 4 2 0 -1 -1 -1 -1 -2 -1 -1 -1 -2 -2
26 27 27 27 27 27 26 25 24 23 21 20 20 19 18 18 13 11 10 8 9 6 4 3 2 2 0 2 3 3 1 -1 -2 -2 -2 -2 -2 -2 -1 -2 -3 -3 -4
21 24 24 25 25 24 24 23 22 21 20 19 16 14 11 11 8 7 6 4 4 1 0 -1 -1 -1 -1 -0 0 0 -1 -2 -3 -3 -3 -4 -4 -4 -4 -4 -4 -3 -3
18 19 21 22 22 21 21 21 17 10 8 8 8 7 6 5 4 2 1 0 -1 -2 -3 -3 -3 -3 -2 -2 -1 -1 -1 -2 -4 -4 -5 -5 -5 -5 -5 -5 -5 -5 -5
14 17 19 18 18 17 12 8 7 5 5 4 3 3 2 1 1 0 -1 -2 -2 -3 -3 -4 -4 -4 -3 -2 -2 -2 -3 -4 -4 -4 -5 -6 -6 -5 -5 -5 -5 -6 -6
11 11 11 10 9 8 6 5 3 3 2 1 1 1 0 -0 -1 -1 -2 -2 -2 -3 -3 -4 -4 -5 -5 -4 -4 -4 -4 -4 -5 -6 -5 -5 -5 -5 -6 -6 -6 -6 -6
8 7 7 6 6 5 4 3 2 1 1 -0 -1 -1 -2 -2 -2 -2 -2 -2 -2 -3 -3 -3 -4 -4 -4 -4 -4 -4 -5 -4 -5 -5 -5 -5 -5 -5 -6 -5 -6 -6 -7
5 5 5 5 5 4 3 2 1 1 -0 -1 -1 -2 -3 -4 -4 -4 -4 -4 -3 -3 -3 -3 -4 -5 -6 -7 -7 -6 -6 -6 -6 -5 -4 -5 -5 -5 -5 -6 -6 -7 -8
2 3 3 4 4 4 3 3 2 1 0 -1 -2 -3 -3 -4 -5 -5 -6 -6 -5 -5 -5 -6 -7 -7 -8 -8 -8 -8 -8 -7 -6 -5 -5 -6 -7 -7 -7 -7 -8 -8 -9

GFSMW_925_temp_096.txt.gz
Temp
29 24 23 20 17 15 14 13 13 13 13 13 13 13 14 14 14 13 14 14 15 16 17 17 17 17 17 17 17 17 18 18 18 18 17 17 17 17 17 16 16 15 15
26 23 21 19 17 15 14 13 13 13 13 13 12 13 13 13 13 13 13 14 14 15 16 17 16 16 16 16 16 17 17 16 17 15 16 14 15 16 16 16 16 15 15
26 24 22 19 17 15 14 14 14 14 13 13 12 12 12 12 12 12 12 13 14 15 16 16 15 15 15 16 16 16 16 15 15 17 16 15 15 15 16 16 16 16 16
27 24 23 20 17 15 14 15 15 14 13 13 13 13 12 12 12 12 12 13 14 14 14 14 14 15 15 15 16 15 15 15 15 16 16 16 16 14 14 15 16 16 16
27 25 23 21 18 16 15 15 15 14 13 14 13 13 13 13 12 11 11 12 12 12 12 14 14 14 15 15 15 15 15 16 16 15 16 16 16 16 15 13 16 16 16
28 26 24 22 19 17 15 15 14 14 14 14 13 14 14 13 12 12 12 11 11 12 13 14 14 14 15 14 15 15 15 16 16 16 17 17 16 16 15 13 15 16 17
27 26 24 23 20 17 16 14 14 14 13 14 14 14 14 13 12 12 12 12 12 12 13 14 14 14 14 15 15 15 16 16 16 16 16 17 16 16 16 16 15 14 16
27 26 25 23 21 17 16 16 15 14 14 14 14 14 13 13 13 13 13 13 13 13 13 14 14 15 15 14 15 16 16 15 15 15 15 16 16 16 16 16 15 13 14
27 27 25 23 22 19 17 16 16 15 14 14 14 14 14 14 14 13 13 13 13 13 14 14 14 15 15 15 16 15 15 15 16 15 16 15 15 16 15 15 15 14 13
28 27 26 24 23 20 18 17 17 16 14 14 14 14 14 13 14 14 14 13 13 13 13 14 15 15 15 15 15 16 16 15 15 16 15 15 15 15 15 15 15 14 13
28 27 27 25 24 21 19 18 18 18 16 14 14 14 14 13 14 14 14 15 14 14 14 14 14 14 15 16 16 15 15 15 16 15 15 15 15 14 14 14 13 13 12
29 28 27 25 24 22 21 19 18 18 17 16 15 14 14 14 14 14 15 15 15 15 15 15 16 15 15 16 15 15 15 15 15 15 15 15 15 14 13 13 12 11 11
29 29 28 26 25 24 22 20 18 19 19 17 16 15 15 15 15 15 15 16 16 16 16 16 16 16 16 15 15 15 15 15 16 16 16 15 15 13 12 11 11 11 11
29 29 28 28 26 25 23 21 20 19 19 19 17 16 16 15 15 16 16 17 17 16 16 16 16 16 16 16 16 16 16 16 16 15 15 13 12 11 11 11 11 10 10
28 29 28 27 27 26 24 23 21 20 19 19 19 18 17 17 16 16 16 16 16 16 16 17 17 16 16 16 16 16 16 16 15 12 10 6 5 5 7 7 7 7 6
27 28 29 28 27 26 25 24 22 20 19 19 19 19 18 17 17 17 17 16 16 16 16 16 16 17 13 13 15 15 14 12 10 7 4 2 2 2 2 2 3 3 2
27 27 27 28 27 27 26 24 23 22 20 19 19 19 18 18 17 17 17 17 16 16 16 14 13 11 9 9 10 12 10 7 4 2 1 0 -0 0 0 1 1 1 0
22 22 24 26 27 28 27 26 24 23 21 20 20 20 19 18 18 17 17 16 14 12 10 8 7 6 4 5 6 7 4 2 0 -0 -0 -1 -1 -1 -1 -1 -1 -1 -2
19 19 19 21 22 25 25 26 25 24 22 21 20 20 19 19 18 13 9 8 9 6 5 4 3 2 0 2 3 4 1 -1 -2 -2 -2 -2 -2 -2 -2 -2 -3 -3 -3
17 16 16 19 21 23 25 26 25 24 22 21 20 20 18 12 8 7 6 4 3 0 -0 -1 -1 -1 -1 -0 1 1 -1 -2 -3 -4 -4 -3 -3 -3 -3 -4 -4 -4 -5
14 14 15 17 20 19 23 19 12 10 9 10 8 8 7 7 5 3 2 1 -1 -1 -2 -3 -3 -2 -2 -2 -1 -1 -2 -3 -4 -5 -5 -5 -5 -5 -5 -5 -5 -5 -5
12 12 13 12 11 11 10 8 6 5 5 6 4 3 2 1 1 1 -1 -2 -2 -3 -3 -4 -4 -4 -3 -3 -3 -3 -3 -3 -4 -5 -5 -5 -5 -5 -5 -5 -5 -6 -6
9 8 8 8 7 7 7 4 3 3 3 2 1 0 -0 -1 -1 -2 -2 -2 -3 -3 -3 -4 -4 -5 -5 -4 -4 -4 -4 -4 -4 -4 -5 -5 -5 -5 -6 -6 -6 -7 -7
6 6 6 6 4 4 3 2 2 1 1 -0 -1 -1 -1 -2 -2 -2 -2 -2 -3 -3 -3 -3 -4 -5 -5 -5 -5 -5 -5 -5 -5 -5 -5 -5 -5 -5 -5 -6 -7 -8 -8
4 4 4 4 3 2 1 1 0 -0 -1 -2 -2 -3 -3 -3 -4 -4 -4 -4 -3 -3 -4 -5 -6 -6 -7 -7 -7 -6 -6 -5 -5 -5 -6 -6 -7 -7 -7 -8 -8 -9 -10
-1 -1 -2 -1 2 2 1 0 -1 -1 -2 -2 -3 -4 -4 -5 -5 -6 -6 -6 -6 -6 -6 -7 -7 -7 -7 -7 -7 -7 -7 -6 -6 -7 -8 -8 -8 -8 -9 -9 -10 -11 -12

GFSMW_925_temp_102.txt.gz
Temp
19 17 15 16 16 15 15 15 14 14 14 13 13 13 14 14 14 14 14 14 14 14 15 15 16 15 16 16 16 16 17 16 17 17 14 14 15 16 15 15 15 14 14
17 16 14 13 14 14 14 14 14 14 14 14 13 13 13 14 14 14 14 14 15 14 15 15 15 15 15 16 16 17 16 16 16 15 15 13 14 14 14 15 15 15 14
17 15 14 13 13 14 14 14 13 14 14 13 13 13 13 14 14 14 13 14 14 14 15 15 15 16 16 16 16 17 16 15 16 17 15 11 12 14 15 15 15 15 14
18 16 14 13 13 13 14 14 13 13 13 14 13 13 13 14 13 14 13 13 14 14 15 16 16 16 16 16 17 17 17 16 15 15 17 16 15 12 12 15 16 15 15
18 17 15 14 13 13 14 14 13 13 13 13 13 13 13 13 13 13 13 13 14 15 15 16 16 16 16 17 17 17 17 17 16 16 16 15 14 14 13 12 14 15 16
18 17 15 13 13 13 14 14 14 13 13 12 12 13 12 12 13 13 12 12 12 13 14 14 14 15 14 15 16 17 17 17 17 16 17 16 15 14 14 11 13 14 17
18 16 14 13 13 13 14 13 13 13 13 12 12 13 12 12 12 12 12 12 11 11 12 13 13 14 14 14 15 15 15 16 17 17 16 16 16 16 16 15 13 12 15
18 16 15 13 13 13 14 14 13 13 13 13 13 13 13 12 12 12 12 11 11 11 12 11 12 12 13 13 12 13 13 15 16 15 15 16 16 16 16 16 14 11 12
18 17 15 14 13 13 13 13 13 13 13 13 13 13 12 12 12 12 11 11 11 11 11 12 12 13 13 12 12 13 14 14 15 15 15 15 16 16 16 16 15 13 12
19 17 16 15 14 14 13 14 14 14 13 13 13 13 12 12 12 12 11 11 11 11 11 11 11 13 13 13 14 14 14 15 15 15 15 15 16 16 16 15 15 15 13
19 19 17 16 15 14 13 13 14 14 14 13 13 13 12 12 12 12 12 12 12 11 11 12 12 13 14 14 14 14 15 15 15 15 15 15 15 16 16 16 15 14 12
20 20 19 16 15 14 14 13 14 14 14 14 13 13 13 13 12 12 12 12 12 12 12 12 13 13 14 14 14 14 14 14 14 15 15 15 15 15 15 15 14 13 13
17 16 17 16 15 15 14 14 14 14 13 14 14 13 13 13 12 12 12 12 12 12 12 13 13 13 13 13 13 14 14 14 14 15 15 14 13 13 13 13 12 12 12
17 15 15 15 16 16 15 14 14 14 13 13 14 13 13 12 12 13 12 12 12 12 12 12 13 13 13 13 14 14 14 14 14 14 13 12 12 11 11 10 10 9 8
17 17 16 14 15 16 16 15 14 14 13 13 13 13 14 13 13 12 12 12 12 12 12 12 12 12 12 13 13 13 13 13 12 11 10 9 8 8 8 7 6 6 5
16 16 16 16 15 16 16 16 15 15 13 13 13 13 13 13 13 12 12 12 12 12 12 12 12 12 12 12 13 13 13 13 12 9 6 5 4 4 4 3 3 4 3
16 15 14 14 14 13 12 13 16 15 15 14 13 13 13 13 13 12 12 12 12 12 13 13 12 12 12 13 13 13 13 11 8 6 4 2 1 1 1 0 -0 -1 -1
13 13 12 12 11 10 10 11 15 16 15 15 14 14 13 13 13 12 12 12 12 12 13 12 12 11 10 9 11 12 10 6 3 2 1 0 -1 -1 -1 -1 -2 -3 -4
11 11 10 11 9 8 9 10 9 11 16 15 15 14 14 13 13 13 12 12 12 11 10 9 8 8 6 7 8 10 7 2 -0 -1 -1 -2 -2 -3 -2 -3 -4 -5 -5
9 9 9 9 7 7 7 8 6 6 7 11 15 15 15 14 13 11 10 9 9 7 5 3 3 2 1 1 1 2 -1 -3 -3 -4 -4 -4 -4 -5 -5 -4 -5 -6 -6
7 7 7 7 6 5 5 5 5 4 5 6 9 12 13 12 10 8 7 6 4 1 0 -1 -1 -1 -2 -2 -2 -2 -3 -4 -5 -6 -6 -6 -5 -5 -5 -6 -7 -7 -7
5 5 5 6 4 3 4 4 3 3 4 5 4 4 6 6 5 5 2 1 0 -1 -2 -3 -3 -3 -3 -4 -4 -4 -4 -5 -5 -6 -6 -6 -6 -7 -7 -8 -8 -8 -9
3 3 4 4 3 2 2 2 2 2 2 2 2 1 0 1 1 -0 -1 -2 -2 -2 -3 -3 -4 -4 -5 -5 -4 -4 -4 -5 -5 -6 -6 -6 -8 -8 -9 -10 -9 -10 -11
1 1 1 3 2 1 1 0 0 1 0 -0 -1 -1 -1 -1 -2 -2 -2 -2 -3 -3 -4 -4 -5 -5 -5 -5 -5 -5 -5 -5 -6 -6 -7 -8 -9 -10 -10 -11 -12 -12 -12
-0 -1 -0 -0 1 0 -1 -1 -1 -1 -2 -3 -4 -4 -4 -4 -4 -4 -4 -4 -4 -5 -5 -5 -5 -5 -6 -5 -5 -6 -6 -6 -7 -8 -9 -10 -10 -11 -12 -12 -12 -13 -13
-2 -2 -2 -2 -1 -1 -1 -2 -2 -3 -3 -4 -4 -5 -5 -5 -5 -5 -6 -5 -4 -4 -5 -5 -5 -6 -5 -5 -5 -6 -7 -7 -7 -8 -11 -11 -12 -12 -13 -13 -14 -14 -14